STARLINK-32534, 62175

Orbit data source: Space-Track

STARLINK-32534, 62175 is a payload satellite owned by SpaceX/Seattle (US) in LEO that was launched on Sat, 30 Nov 2024 UTC via an FALCON 9 launch vehicle from the Air Force Western Test Range (AFWTR). Payload-class satellites include a variety of spacecraft equipped with specific instruments for various scientific and technological missions. These include communications satellites like Starlink; space stations such as the ISS; scientific satellites like the Hubble; Earth observation satellites from companies like Planet Labs, Umbra, and HawkEye 360; GPS; miniature CubeSats for education and research; and military/defense satellites.

Loading next visibility...
Identifier
62175, 2024-225N
Orbit
LEO
Country
Flag of USUS
Related business
Manufacturer
SpaceX/Seattle
Mission
Operational Commercial Communications
Bus & Motor
STARLINK V2M, Unknown motor
Mass
730 kg wet, ~700 kg dry
Launch date (UTC)
2024-11-30 (1 year ago)
Launch vehicle
FALCON 9
Launch site
Air Force Western Test Range (AFWTR)
Object type
Payload
Rocket body
Debris
Shape & HBR
Box + 2 Pan, 17.7 m
Radar Cross Section
33.884 m², Large (>1 m²)

Expand to show TLE details & history
Last TLE update: 12 hours ago

TLE from 12 hours ago
0 STARLINK-32534
1 62175U 24225N   26062.76471630  .00010384  00000-0  87709-3 0  9996
2 62175  70.0022 179.5457 0003751 279.0291  81.0443 14.98315528 68985
Epoch: 2026-03-03T18:21Z
TLE epoch observation values (Epoch: 2026-03-03T18:21:11.488Z)
Latitude
-0.00006°
Longitude
102.70872°
Altitude
574.12 km
Speed
7.574 km/s
True Right ascension
11h 58m 10s
True Declination
0° 00' 00"
Sunlit
Object was in full shadow at epoch
Visualization orbit readout
Latitude
Unknown
Longitude
Unknown
Altitude
Unknown
Speed
Unknown
Apparent Right ascension
Unknown
Apparent Declination
Unknown
Sunlit
N/A
Visualization observer readout
Local Sidereal Time
10:02:14
Azimuth
Unknown
Elevation
Unknown
Doppler factor
Unknown
Orbital elements
Apogee altitude
572.655 km
Perigee altitude
567.442 km
Semi-major axis
6,948.186 km
Eccentricity
0.00038
Inclination
70.0022°
RAAN
179.5457°
Arg. of periapsis
279.0291°
True anomaly
81.08676°
Mean anomaly
81.0443°
Eccentric anomaly
81.06553°
Mean motion
3.74745 °/min
Orbital period
96.07 mins
BSTAR
0.00087709
Loading maneuver chart data...
Computing Atmospheric mass density...
Loading historical data...
Loading historical data...
Loading historical data...
Loading historical data...
Loading historical data...
Loading historical data...
Loading historical data...

Documentation

Showing up to 5 results
|